INTELSAT 33E DEB, 61992

Orbit data source: Space-Track

INTELSAT 33E DEB, 61992 is space debris in GEO originally from a launch on Wed, 24 Aug 2016 UTC launched from the French Guiana (FRGUI). Debris objects in space refer to the collection of defunct objects orbiting the Earth. Examples of debris include non-operational satellites, rocket bodies, and fragments generated from explosions, collisions, or faulty payload assembly.

Not visible in the next 10 days
Identifier
61992, 2016-053J
Orbit
GEO
Country
Flag of USUS / ITSO
Related business
Manufacturer
Boeing/ES
Mission
Spacecraft
Bus & Motor
Unknown
Mass
Unknown
Launch date (UTC)
2016-08-24 (10 years ago)
Launch vehicle
Unknown
Launch site
French Guiana (FRGUI)
Object type
Payload
Rocket body
Debris
Shape & HBR
Unknown shape, 1.1 m
Radar Cross Section
RCS unknown

Expand to show TLE details & history
Last TLE update: 11 hours ago

TLE from 11 hours ago
0 INTELSAT 33E DEB
1 61992U 16053J   26166.15339838 -.00000296  00000-0  00000-0 0  9991
2 61992   1.5582  83.8645 0057098 322.2650  36.3346  1.00796507  6098
Epoch: 2026-06-15T03:40Z
TLE epoch observation values (Epoch: 2026-06-15T03:40:53.620Z)
Latitude
-0°
Longitude
124.18735°
Altitude
35,445.813 km
Speed
3.094 km/s
True Right ascension
05h 31m 25s
True Declination
0° 00' 00"
Sunlit
Object was in daylight at epoch
Visualization orbit readout
Latitude
Unknown
Longitude
Unknown
Altitude
Unknown
Speed
Unknown
Apparent Right ascension
Unknown
Apparent Declination
Unknown
Sunlit
N/A
Visualization observer readout
Local Sidereal Time
01:27:01
Azimuth
Unknown
Elevation
Unknown
Doppler factor
Unknown
Orbital elements
Apogee altitude
35,881.13 km
Perigee altitude
35,401.286 km
Semi-major axis
42,019.345 km
Eccentricity
0.00571
Inclination
1.5582°
RAAN
83.8645°
Arg. of periapsis
322.265°
True anomaly
36.72451°
Mean anomaly
36.3346°
Eccentric anomaly
36.52933°
Mean motion
0.25198 °/min
Orbital period
1,428.67 mins
BSTAR
0
Loading maneuver chart data...
Computing Atmospheric mass density...
Loading historical data...
Loading historical data...
Loading historical data...
Loading historical data...
Loading historical data...
Loading historical data...
Loading historical data...

Documentation

Showing up to 5 results
|